Tracking 28052 objects as of 25-Sep-2023
HD Live streaming from Space Station
objects crossing your sky now

STARLINK-2540

Track STARLINK-2540 now!
10-day predictions
STARLINK-2540 is classified as:


NORAD ID: 48290
Int'l Code: 2021-036Q
Perigee: 554.1 km
Apogee: 554.7 km
Inclination: 53.1 °
Period: 95.6 minutes
Semi major axis: 6925 km
RCS: Unknown
Launch date: April 29, 2021
Source: United States (US)
Launch site: AIR FORCE EASTERN TEST RANGE (AFETR)
Your satellite tracking list
Your tracking list is empty




NASA's NSSDC Master Catalog

Two Line Element Set (TLE):
1 48290U 21036Q   23267.69523302  .00013433  00000-0  91938-3 0  9992
2 48290  53.0540 148.3850 0000483  53.8978 306.2055 15.06384448133692
Source of the keplerian elements: AFSPC